Погода в Кучкаке

Узбекистан     38°53′22″N   65°44′20″E
темп.,
°C
ветер,
м/с
пор.,
м/с
влажн.,
%
обл.,
%
осадки,
мм/ч
давл.,
гПа
погр.,
м
27 ноября, сб
сб2723:00+7с23665 0.0 102751
02:00+6св12675 0.0 102620
05:00+5вюв126918 0.0 102611
08:00+5ю226714 0.0 102614
11:00+10ююз224550 0.0 1025353
14:00+13зсз0135100 0.0 1022634
17:00+12с224066 0.0 102210
20:00+9ссз22475 0.0 102211
28 ноября, вс
вс2823:00+8с225689 0.0 102212
02:00+7с1163100 0.0 102211
05:00+7с1163100 0.0 102210
08:00+8ю115992 0.0 102310
11:00+12юз22429 0.0 1023354
14:00+15зюз12330 0.0 1021836
17:00+12ю00413 0.0 102210
20:00+11всв22450 0.0 102210
29 ноября, пн
пн2923:00+9ю12510 0.0 102210
02:00+8ююв11575 0.0 102210
05:00+8вюв22560 0.0 102210
08:00+8в22580 0.0 102210
11:00+15всв22370 0.0 1022264
14:00+18св33285 0.0 1020619
17:00+16ссв333297 0.0 102033
20:00+13ссв3337100 0.0 102136
30 ноября, вт
вт3023:00+12св224088 0.0 102114
02:00+12всв2239100 0.0 102011
05:00+12всв3335100 0.0 102027
08:00+12всв3333100 0.0 102121
11:00+17в112349 0.0 1021211
14:00+20зюз111939 0.0 1019655
17:00+16зюз11265 0.0 101811
20:00+14юз22315 0.0 101911
1 декабря, ср
ср123:00+12ю11360 0.0 101811
02:00+12вюв22350 0.0 101711
05:00+11в33360 0.0 101713
08:00+11вюв33350 0.0 101625
11:00+19юв45190 0.0 1015250
14:00+23ююз47140 0.0 1013773
17:00+20ю44180 0.0 101241
20:00+17ююв511200 0.0 1013143